Discovery united by Catastrophe
(Preview)
Audio Visual
6
1623
Channel 4, 30 Oct 2008 Discovery are teaming up to coproduce Catastrophe , a big-budget Earth science series examining the disasters that have shaped the planet. The series examines the history of natural disasters, from planetary collisions to asteroid impacts, and features a number of "s...
La Cumbre volcano
(Preview)
General news
0
2475
Ecuador officials say a volcano is erupting in the Galapagos Islands and could harm unique wildlife. The Galapagos National Park says La Cumbre volcano began spewing lava, gas and smoke on uninhabited Fernandina Island on Saturday after four years of inactivity. [url=http://www.chron.com/di...
Asteroid 2009 FJ44
(Preview)
Solar System
0
390
Orbital elements: 2009 FJ44 PHA, Earth MOID = 0.0122 AU Epoch 2009 June 18.0 TT = JDT 2455000.5 MPC M 345.59614 (2000.0) P Q n 0.44619338 Peri. 203.98548 +0.59120802 +0.80636177 a 1.6961098 Node 102.26105 -0.73730578 +0.54837226 e 0.5492781 Incl. 0.93410 -0.32688419 +0.22151425 P 2.21 H 19.8 G 0....
Asteroid 2009 FH44
(Preview)
Solar System
0
542
MPEC 2009 - G04
Asteroid 2009 FF44
(Preview)
Solar System
0
458
MPEC 2009 - G02
Asteroid 2005 EJ94
(Preview)
Solar System
0
408
Orbital elements: 2005 EJ94 = 2009 DY13 Earth MOID = 0.1784 AU Epoch 2009 June 18.0 TT = JDT 2455000.5 MPC M 359.14232 (2000.0) P Q n 0.25351074 Peri. 286.16984 -0.27055476 +0.96042539 a 2.4725124 Node 327.89610 -0.82882380 -0.26736285 e 0.5384735 Incl. 7.15617 -0.48974608 -0.07810367 P 3.89 H 19...
Asteroid 2004 HC2
(Preview)
Solar System
0
393
Orbital elements: 2004 HC2 Earth MOID = 0.0683 AU Epoch 2009 June 18.0 TT = JDT 2455000.5 MPC M 89.37796 (2000.0) P Q n 0.60338211 Peri. 303.16960 -0.62454309 -0.76694304 a 1.3869935 Node 190.36779 +0.61554770 -0.59959482 e 0.3117678 Incl. 55.02208 -0.48067344 +0.22865787 P 1.63 H 19.4 G 0.15 U 4 [...
Asteroid 2009 FT32
(Preview)
Solar System
0
446
Orbital elements: 2009 FT32 Earth MOID = 0.0869 AU Epoch 2009 June 18.0 TT = JDT 2455000.5 MPC M 7.73483 (2000.0) P Q n 0.22405616 Peri. 62.78111 -0.45268878 +0.89166822 a 2.6847146 Node 180.30606 -0.86213316 -0.43792446 e 0.6350642 Incl. 8.67470 -0.22759458 -0.11467321 P 4.40 H 23.8 G 0.15 U 9 [ur...
Asteroid 2009 FQ32
(Preview)
Solar System
1
476
The 10 - 25 metre wide asteroid 2009 FQ32, made a close flyby of the Earth on the 31st March, 2009, passing by one million, two hundred and seventy thousand km away. See more
Asteroid 2009 FO32
(Preview)
Solar System
1
531
The 20 - 40 metre wide asteroid 2009 FO32, made a close flyby of the Earth on the 31st March, 2009, passing by one million, four hundred and eighty thousand km away. See more
Asteroid 2009 FN32
(Preview)
Solar System
0
365
MPEC 2009 - F97
Kazakhstan space program
(Preview)
General news
0
495
Kazakhstan has indefinitely postponed a plan of sending its own cosmonaut to the International Space Station (ISS) for lack of funding. Read more
Asteroid 2009 FR32
(Preview)
Solar System
0
405
The 25 - 55 metre wide asteroid 2009 FR32 passed the Earth-Moon system on the 10th April, 2009, at a distance of nine million, seven hundred and twenty thousand km. Orbital elements: 2009 FR32 Earth MOID = 0.0644 AU Epoch 2009 June 18.0 TT = JDT 2455000.5 MPC M 28.15607 (2000.0) P Q n 0.41437921 Peri. 200...
Project JOULE II
(Preview)
Mission News
3
717
Although ample auroral displays were visible beginning at sundown Thursday, scientists at Poker Flat pulled an all-nighter, waiting until 3:29 a.m. Friday to launch four research rockets. "We wanted the (electrical) current to be in the right place " - Miguel Larsen, a professor at Cl...
Dunton UFO
(Preview)
Meteorite News
0
532
[url=http://www.biggleswadetoday.co.uk/bigg/Was-there-a-UFO-abov...
«First < 1
2146 2147 2148 2149 2150
2461 > Last» | Page
